Weather History for KPEA - December, 2013

Change the Weather History Date:

Tuesday, December 24, 2013

  Actual Average (KOXV) Record (KOXV)
Temperature  
Mean Temperature -2 °F -  
Max Temperature 15 °F 32 °F 56 °F (1950)
Min Temperature -19 °F 13 °F -20 °F (1983)
Degree Days  
Heating Degree Days 68    
Moisture  
Dew Point -8 °F    
Average Humidity 69    
Maximum Humidity 95    
Minimum Humidity 49    
Precipitation  
Precipitation 0.00 in - - ()
Sea Level Pressure  
Sea Level Pressure 30.41 in    
Wind  
Wind Speed 3 mph (SSE)    
Max Wind Speed 12 mph    
Max Gust Speed 18 mph    
Visibility 9 miles    
Events Snow    
Averages and records for this station are not official NWS values.
T = Trace of Precipitation, MM = Missing Value Source: NWS Daily Summary

Daily Weather History Graph

Daily Weather History Graph

Search for Another Location

Airport or City:

Trip Planner

Search our weather history database for the weather conditions in past years. The results will help you decide how hot, cold, wet, or windy it might be!

Date:

Astronomy

Dec. 24, 2013 Rise Set
Actual Time 7:35 AM CST 4:47 PM CST
Civil Twilight 7:04 AM CST 5:18 PM CST
Nautical Twilight 6:29 AM CST 5:53 PM CST
Astronomical Twilight 5:56 AM CST 6:27 PM CST
Moon No Moon Rise 11:25 AM CST (12/24)
Length of Visible Light 10h 14m
Length of Day
9h 11m
Waning Gibbous, 58% of the Moon is Illuminated
Dec 24
Waning Gibbous
Dec 25
Last Quarter
Jan 1
New
Jan 7
First Quarter
Jan 15
Full

Hourly Weather History & Observations

Time (CST) Temp. Windchill Dew Point Humidity Pressure Visibility Wind Dir Wind Speed Gust Speed Precip Events Conditions
12:15 AM -8.7 °F - -17.5 °F 65% 30.56 in 10.0 mi Calm Calm - N/A   Clear
12:35 AM -8.5 °F - -17.0 °F 67% 30.56 in 10.0 mi Calm Calm - N/A   Clear
12:55 AM -10.3 °F - -17.9 °F 69% 30.56 in 10.0 mi Calm Calm - N/A   Clear
1:15 AM -10.5 °F - -17.9 °F 70% 30.56 in 10.0 mi Calm Calm - N/A   Clear
1:35 AM -10.7 °F - -18.2 °F 69% 30.56 in 10.0 mi Calm Calm - N/A   Clear
1:55 AM -10.8 °F - -18.4 °F 69% 30.56 in 10.0 mi Calm Calm - N/A   Clear
2:15 AM -10.8 °F - -18.8 °F 68% 30.56 in 10.0 mi Calm Calm - N/A   Clear
2:35 AM -11.9 °F - -19.3 °F 70% 30.55 in 10.0 mi Calm Calm - N/A   Clear
2:55 AM -11.7 °F - -19.3 °F 69% 30.55 in 10.0 mi Calm Calm - N/A   Clear
3:15 AM -10.8 °F -22.5 °F -18.9 °F 67% 30.55 in 10.0 mi NW 4.6 mph - N/A   Clear
3:35 AM -11.7 °F - -19.7 °F 68% 30.55 in 10.0 mi Calm Calm - N/A   Clear
3:55 AM -15.0 °F - -22.4 °F 69% 30.55 in 10.0 mi Calm Calm - N/A   Clear
4:15 AM -14.6 °F - -20.6 °F 75% 30.54 in 10.0 mi Calm Calm - N/A   Clear
4:35 AM -13.4 °F -23.1 °F -19.1 °F 75% 30.54 in 10.0 mi SW 3.5 mph - N/A   Clear
4:55 AM -17.0 °F - -22.9 °F 74% 30.53 in 10.0 mi Calm Calm - N/A   Clear
5:15 AM -17.3 °F - -22.5 °F 77% 30.52 in 10.0 mi Calm Calm - N/A   Clear
5:35 AM -15.5 °F - -20.2 °F 79% 30.52 in 10.0 mi Calm Calm - N/A   Clear
5:55 AM -17.1 °F - -22.0 °F 79% 30.51 in 10.0 mi Calm Calm - N/A   Clear
6:15 AM -18.0 °F - -23.3 °F 77% 30.51 in 10.0 mi Calm Calm - N/A   Clear
6:35 AM -17.9 °F -28.2 °F -22.7 °F 78% 30.51 in 10.0 mi SSE 3.5 mph - N/A   Clear
6:55 AM -16.8 °F - -21.8 °F 78% 30.51 in 10.0 mi Calm Calm - N/A   Clear
7:15 AM -19.3 °F - -24.9 °F 76% 30.51 in 10.0 mi Calm Calm - N/A   Clear
7:35 AM -19.5 °F -30.1 °F -24.9 °F 76% 30.50 in 10.0 mi SE 3.5 mph - N/A   Clear
7:55 AM -17.7 °F -28.0 °F -22.7 °F 78% 30.51 in 10.0 mi South 3.5 mph - N/A   Clear
8:15 AM -16.1 °F - -21.6 °F 76% 30.50 in 10.0 mi Calm Calm - N/A   Clear
8:35 AM -13.9 °F -26.1 °F -20.0 °F 74% 30.51 in 10.0 mi SSW 4.6 mph - N/A   Clear
8:55 AM -12.6 °F -22.3 °F -19.3 °F 72% 30.53 in 10.0 mi SSW 3.5 mph - N/A   Clear
9:15 AM -8.5 °F - -16.8 °F 67% 30.52 in 10.0 mi Calm Calm - N/A   Clear
9:35 AM -9.4 °F -20.9 °F -18.8 °F 64% 30.52 in 10.0 mi SSE 4.6 mph - N/A   Clear
9:55 AM -6.0 °F -20.1 °F -16.1 °F 62% 30.52 in 10.0 mi SSE 6.9 mph - N/A   Clear
10:15 AM -2.6 °F -14.6 °F -14.4 °F 57% 30.51 in 10.0 mi SSE 5.8 mph - N/A   Clear
10:35 AM -2.0 °F -19.6 °F -14.6 °F 55% 30.51 in 10.0 mi South 11.5 mph - N/A   Clear
10:55 AM -1.5 °F -14.7 °F -14.1 °F 55% 30.50 in 10.0 mi South 6.9 mph - N/A   Clear
11:15 AM 0.7 °F -12.1 °F -12.3 °F 55% 30.48 in 10.0 mi SSE 6.9 mph - N/A   Clear
11:35 AM 4.1 °F -9.2 °F -11.2 °F 49% 30.47 in 10.0 mi SSE 8.1 mph - N/A   Clear
11:55 AM 4.3 °F -6.5 °F -10.5 °F 51% 30.46 in 10.0 mi SSE 5.8 mph - N/A   Clear
12:15 PM 5.9 °F -5.8 °F -8.9 °F 51% 30.45 in 10.0 mi SSE 6.9 mph - N/A   Clear
12:35 PM 5.9 °F -8.9 °F -8.5 °F 52% 30.43 in 10.0 mi SSE 10.4 mph - N/A   Clear
12:55 PM 7.7 °F -6.6 °F -7.6 °F 50% 30.41 in 10.0 mi SE 10.4 mph - N/A   Clear
1:15 PM 7.2 °F -5.4 °F -6.0 °F 55% 30.38 in 10.0 mi SE 8.1 mph - N/A   Clear
1:35 PM 7.3 °F -6.2 °F -5.8 °F 55% 30.37 in 10.0 mi SE 9.2 mph - N/A   Clear
1:55 PM 7.3 °F -7.1 °F -4.7 °F 58% 30.36 in 10.0 mi SE 10.4 mph - N/A   Clear
2:15 PM 8.1 °F -6.2 °F -4.9 °F 56% 30.35 in 10.0 mi SE 10.4 mph - N/A   Clear
2:35 PM 8.2 °F -6.8 °F -4.4 °F 57% 30.34 in 10.0 mi SE 11.5 mph - N/A   Clear
2:55 PM 8.6 °F -4.7 °F -3.6 °F 58% 30.32 in 10.0 mi SE 9.2 mph - N/A   Clear
3:15 PM 9.5 °F -5.2 °F -3.3 °F 56% 30.31 in 10.0 mi SE 11.5 mph - N/A   Clear
3:35 PM 9.5 °F -4.4 °F -2.4 °F 59% 30.29 in 10.0 mi SE 10.4 mph - N/A   Clear
3:55 PM 9.5 °F -4.4 °F -2.2 °F 59% 30.29 in 10.0 mi SE 10.4 mph - N/A   Clear
4:15 PM 9.3 °F -4.6 °F -2.2 °F 60% 30.29 in 10.0 mi SE 10.4 mph 18.4 mph N/A   Clear
4:35 PM 9.5 °F -4.4 °F -1.5 °F 61% 30.28 in 10.0 mi SE 10.4 mph - N/A Snow Light Snow
4:55 PM 9.7 °F -4.2 °F -0.4 °F 64% 30.29 in 4.0 mi SE 10.4 mph - N/A Snow Light Snow
5:15 PM 10.0 °F -2.9 °F 1.0 °F 67% 30.28 in 10.0 mi SE 9.2 mph 16.1 mph N/A Snow Light Snow
5:35 PM 10.4 °F -3.3 °F 1.0 °F 66% 30.26 in 10.0 mi SE 10.4 mph - N/A Snow Light Snow
5:55 PM 11.1 °F -3.2 °F 1.0 °F 64% 30.25 in 10.0 mi SSE 11.5 mph 18.4 mph N/A   Overcast
6:15 PM 11.3 °F -0.4 °F 1.9 °F 66% 30.27 in 10.0 mi SSE 8.1 mph 16.1 mph N/A   Overcast
6:35 PM 11.8 °F 0.3 °F 2.5 °F 66% 30.28 in 10.0 mi South 8.1 mph - N/A   Overcast
6:55 PM 12.0 °F 0.5 °F 3.0 °F 67% 30.28 in 10.0 mi SSE 8.1 mph - N/A   Overcast
7:15 PM 12.2 °F 0.7 °F 3.7 °F 69% 30.29 in 10.0 mi SSE 8.1 mph - N/A   Overcast
7:35 PM 12.2 °F 2.9 °F 4.3 °F 71% 30.29 in 10.0 mi SSE 5.8 mph - N/A   Overcast
7:55 PM 12.6 °F 4.8 °F 4.8 °F 71% 30.29 in 10.0 mi South 4.6 mph - N/A   Mostly Cloudy
8:15 PM 12.7 °F 5.0 °F 5.4 °F 72% 30.29 in 10.0 mi SSE 4.6 mph - N/A   Mostly Cloudy
8:35 PM 12.9 °F 5.2 °F 5.7 °F 73% 30.28 in 10.0 mi SE 4.6 mph - N/A   Mostly Cloudy
8:55 PM 13.1 °F 5.4 °F 5.9 °F 73% 30.27 in 10.0 mi SE 4.6 mph - N/A   Overcast
9:15 PM 13.1 °F 4.0 °F 6.8 °F 76% 30.26 in 10.0 mi SE 5.8 mph - N/A   Mostly Cloudy
9:35 PM 13.1 °F 5.4 °F 7.9 °F 80% 30.26 in 7.0 mi SE 4.6 mph - N/A   Overcast
9:55 PM 13.5 °F 5.8 °F 9.5 °F 84% 30.25 in 5.0 mi SSE 4.6 mph - N/A   Overcast
10:15 PM 13.6 °F 6.0 °F 10.4 °F 87% 30.24 in 5.0 mi SSE 4.6 mph - N/A   Overcast
10:35 PM 14.0 °F 5.1 °F 11.3 °F 89% 30.24 in 7.0 mi SSE 5.8 mph - N/A   Overcast
10:55 PM 14.2 °F 5.3 °F 12.2 °F 92% 30.23 in 4.0 mi SSE 5.8 mph - N/A   Overcast
11:15 PM 14.7 °F 5.9 °F 13.1 °F 93% 30.23 in 4.0 mi SSE 5.8 mph - N/A   Overcast
11:35 PM 14.9 °F 5.0 °F 13.6 °F 95% 30.23 in 5.0 mi South 6.9 mph - N/A   Overcast
11:55 PM 15.3 °F 7.9 °F 14.0 °F 95% 30.22 in 5.0 mi SSE 4.6 mph - N/A   Overcast